Vertical_Velocity
1 -1 -4 -3 -0 -0 1 2 -1 -7 -8 -6 3 2 7 -3 -4 1 -2 -2 -5 -5 -6 -9 -6 -3 4 11 9 5 3 -0 -2 1 0 -5 2 -0 -7 4 -2 1 11 5
1 4 1 1 -1 -3 -2 0 -3 6 -5 -15 -5 3 7 7 7 5 4 2 1 -1 -2 -2 -5 -2 0 1 2 1 3 6 5 4 6 6 4 -0 -5 -6 -7 -8 9 3
-4 -3 -1 -1 -1 0 -2 1 -2 -5 -2 -0 -17 6 2 2 -1 -2 -2 -1 -0 -2 -3 -4 -1 -4 1 5 8 6 2 5 13 13 6 2 -4 1 12 6 3 6 3 1
-0 2 -1 2 -0 -6 3 -8 -5 -4 -8 -3 11 -70 -2 2 1 3 2 1 -1 -6 -4 1 4 4 4 3 3 4 6 10 10 10 6 5 4 0 -3 -3 9 -3 2 4
0 -4 -2 0 -2 -5 0 -0 -4 -3 -1 -16 19 -51 16 6 4 -1 -0 -1 2 7 8 3 1 2 1 4 7 5 4 3 1 7 11 7 -2 1 -1 1 4 -0 8 6
-1 -2 -4 -1 -1 -7 -6 -4 -5 -0 -6 -9 2 -12 17 0 -2 -0 -6 -1 -0 -1 1 -2 -2 -0 -1 1 3 1 3 1 -0 -1 -4 -3 1 -3 8 5 13 6 -4 9
2 -1 2 -2 1 -1 -3 -4 -12 -8 -9 -1 -4 -11 1 3 -2 -6 0 -1 -1 -4 -6 -5 -3 -8 -5 1 5 4 -1 3 -6 -4 5 -1 3 4 -1 3 1 6 -7 38
-2 9 4 4 3 2 11 1 -0 -29 -11 -4 -5 -14 -18 -4 -9 1 -1 -1 -4 -1 -3 -2 -1 1 2 3 2 -1 -4 -2 -4 -7 -5 7 0 5 0 2 0 1 4 -1
-11 2 2 5 5 -2 -5 2 4 -17 8 -19 12 -6 -17 -0 -6 2 -2 -7 -0 -5 -4 1 -2 -7 -5 -2 -1 2 -5 1 -2 7 -1 -0 30 -8 1 -7 15 5 -1 6
-8 -15 -4 3 6 11 2 -0 -3 11 -19 -19 8 -6 -16 -7 1 1 -6 -2 -6 -4 -2 2 3 1 -1 -11 -3 3 11 -13 -2 6 -2 2 -2 9 3 6 -10 -6 2 11
-6 -5 5 5 10 9 0 6 2 -3 7 -13 -29 28 12 2 -12 -10 -6 -4 -1 2 4 5 1 -0 -2 -8 -12 -7 -11 -6 4 -2 5 18 5 5 8 -0 1 -12 -11 6
4 -14 -8 -3 -5 -3 2 4 5 -1 3 6 -10 -9 0 -2 -3 -15 -4 -2 -2 -4 -5 -1 4 -1 0 -0 4 1 -2 -12 5 9 5 3 6 9 4 3 -3 -1 -2 -1
2 -12 -13 -0 6 1 5 5 7 3 0 19 -6 10 -4 -4 0 2 -8 -9 2 4 3 2 0 -1 -4 -4 -6 1 8 8 7 1 1 3 -3 -14 8 -5 -11 -1 -7 -10
-10 -7 0 -9 -0 -10 2 3 6 7 -3 -9 15 -15 3 2 -7 6 8 4 2 1 -1 -8 -10 -11 -5 -1 -6 1 -0 2 5 8 12 4 7 5 4 1 5 -13 -4 -6
-3 -14 -5 -0 2 -2 -1 5 0 3 9 -13 20 -6 8 -7 -2 2 1 -6 0 -0 -12 -8 -5 -3 -2 -6 9 -2 -1 -2 8 7 7 5 3 3 1 1 -1 -4 -1 -3
-0 -17 -2 2 4 -0 -3 3 5 -1 5 -1 -7 11 -11 4 4 1 4 -2 -1 -2 1 -10 4 -5 1 13 15 3 -0 3 -3 2 10 5 3 2 1 2 2 2 2 -2
-5 -1 -4 -4 -1 -8 -5 10 4 3 0 -2 1 -4 -1 2 0 -3 -3 -1 -3 -3 9 -9 -4 -4 6 19 12 10 -1 6 2 5 1 -0 -1 -1 -2 -3 -4 -0 -2 -1
-4 1 -3 -9 0 -4 -9 0 -6 -3 10 -6 -3 -4 -6 -7 -1 2 -4 -8 1 -2 5 -8 -5 -3 3 23 0 10 6 24 4 -1 1 -2 -3 -3 -1 -3 -4 -3 -2 1
-1 0 -2 -8 1 7 9 -1 -3 -4 18 3 2 -2 -4 1 1 -3 -7 -3 -1 -2 -4 -4 -2 3 1 17 2 32 -4 -2 1 2 1 0 2 2 1 -0 -3 -2 -1 -3
0 -2 3 3 -10 -15 22 1 1 -0 0 -7 -4 -2 1 -5 5 -6 -6 -6 1 -1 -9 -3 3 -2 -1 2 14 -11 16 16 -4 1 -1 -3 -2 -0 1 -3 -1 -4 -5 -2
-1 -0 4 -6 -8 1 -4 -2 -1 -1 -1 -3 -2 -3 -11 -4 -7 -14 -7 -7 -7 -6 -3 1 -1 -1 -5 -2 2 -0 -2 -2 -1 -3 -2 -1 -2 1 3 4 1 1 -3 -5
-2 -5 4 -1 -0 3 -1 -2 -8 -5 -5 -3 -3 1 1 0 -10 2 -3 -3 -5 -3 -2 -5 -3 -0 2 0 3 3 3 1 1 1 1 -1 0 0 0 -0 -5 -6 -4 -6
-3 1 8 -3 -1 2 3 -4 0 5 -0 -5 -9 -5 -11 -1 -1 -4 -2 -3 -6 -7 -5 0 -2 -1 -1 -1 -2 0 -0 -1 -1 -2 -0 -1 -4 -4 -6 -5 -5 -4 -4 -5
-1 -0 7 1 -16 1 -1 -1 2 -1 -1 5 -3 12 -1 -5 3 -7 -3 -2 -4 -2 -2 -1 -3 -1 2 2 2 -0 -2 -2 -2 -2 -2 -1 -4 -3 -7 -5 -6 -4 -4 -4
-9 6 -6 8 -6 -1 10 -5 3 -1 -3 -9 2 2 -3 1 1 -5 -1 -1 -4 -2 -2 -2 -3 -1 -1 0 0 0 1 1 1 -2 -1 -3 -5 -6 -0 -4 -4 0 -2 -1
0 0 -4 2 -5 2 6 5 -5 0 1 -4 -8 -1 -4 2 1 -3 -1 -0 -1 -3 -1 1 -0 2 1 1 1 1 0 0 -0 1 -1 -2 -3 2 2 -0 5 -3 1 -1
Height
5784 5784 5783 5782 5782 5782 5782 5783 5784 5785 5783 5778 5781 5778 5781 5780 5781 5780 5778 5776 5774 5773 5771 5768 5765 5761 5758 5756 5752 5750 5747 5743 5741 5739 5737 5737 5737 5736 5736 5734 5732 5732 5731 5729
5781 5780 5779 5778 5777 5776 5776 5776 5777 5780 5778 5771 5773 5772 5772 5774 5773 5771 5768 5766 5764 5761 5758 5755 5752 5749 5744 5741 5739 5737 5733 5729 5725 5721 5720 5720 5721 5721 5720 5718 5718 5718 5717 5715
5775 5776 5774 5774 5774 5771 5770 5770 5769 5768 5771 5769 5762 5760 5765 5765 5762 5758 5756 5753 5751 5749 5746 5743 5739 5735 5731 5726 5723 5720 5717 5713 5708 5706 5704 5703 5704 5704 5702 5701 5700 5699 5701 5701
5771 5769 5769 5770 5770 5764 5765 5764 5760 5759 5756 5754 5754 5751 5753 5750 5748 5747 5744 5741 5738 5734 5731 5727 5724 5721 5716 5711 5706 5701 5697 5695 5694 5692 5690 5689 5687 5686 5686 5687 5686 5684 5683 5684
5766 5765 5764 5764 5763 5759 5756 5755 5754 5751 5748 5743 5745 5741 5734 5731 5731 5730 5727 5724 5719 5715 5712 5708 5704 5699 5694 5689 5685 5683 5682 5681 5680 5678 5674 5670 5668 5669 5666 5666 5667 5665 5666 5668
5761 5759 5757 5757 5756 5752 5749 5748 5745 5742 5739 5734 5734 5729 5723 5722 5718 5713 5708 5703 5700 5696 5692 5688 5683 5678 5674 5669 5664 5661 5659 5656 5655 5653 5651 5650 5649 5648 5648 5648 5648 5649 5649 5650
5753 5752 5751 5751 5749 5747 5744 5741 5735 5732 5728 5726 5721 5716 5715 5710 5705 5700 5695 5689 5683 5678 5672 5667 5662 5657 5652 5647 5642 5640 5637 5635 5632 5632 5629 5628 5628 5629 5629 5629 5629 5631 5633 5630
5744 5746 5747 5744 5742 5739 5737 5734 5729 5722 5720 5716 5710 5705 5701 5697 5694 5689 5683 5676 5668 5660 5653 5645 5637 5631 5626 5622 5619 5618 5617 5617 5614 5612 5610 5608 5607 5608 5608 5608 5610 5612 5613 5615
5732 5731 5732 5734 5733 5733 5727 5721 5717 5713 5711 5704 5700 5694 5689 5684 5679 5671 5662 5655 5645 5639 5630 5622 5612 5605 5600 5599 5597 5597 5597 5596 5595 5592 5590 5586 5587 5588 5589 5589 5587 5586 5591 5593
5726 5722 5721 5721 5720 5721 5717 5712 5706 5701 5694 5689 5686 5679 5668 5665 5658 5651 5644 5635 5625 5616 5607 5597 5588 5582 5579 5577 5578 5577 5577 5578 5575 5571 5568 5568 5567 5567 5566 5566 5564 5569 5566 5572
5721 5717 5714 5709 5710 5706 5702 5697 5693 5687 5681 5673 5668 5662 5652 5645 5641 5633 5623 5614 5602 5591 5581 5572 5566 5563 5560 5559 5559 5558 5555 5555 5552 5547 5545 5544 5543 5542 5542 5541 5542 5545 5549 5552
5712 5707 5704 5703 5698 5695 5689 5685 5680 5672 5666 5656 5650 5647 5638 5629 5619 5609 5599 5587 5577 5567 5560 5556 5551 5546 5542 5537 5534 5532 5527 5526 5526 5520 5518 5516 5517 5518 5517 5519 5522 5521 5526 5532
5696 5691 5690 5687 5685 5682 5676 5670 5663 5656 5651 5645 5636 5631 5622 5610 5598 5585 5575 5567 5559 5550 5542 5534 5529 5524 5518 5512 5505 5501 5496 5496 5496 5495 5494 5493 5493 5494 5497 5500 5503 5508 5509 5508
5684 5681 5681 5677 5673 5667 5661 5657 5651 5644 5636 5630 5619 5613 5601 5592 5582 5572 5556 5546 5537 5527 5518 5509 5504 5496 5490 5484 5480 5476 5475 5475 5476 5479 5480 5480 5482 5486 5489 5490 5494 5496 5497 5499
5670 5668 5667 5664 5661 5655 5650 5644 5636 5628 5620 5609 5606 5591 5585 5570 5559 5547 5535 5524 5514 5505 5499 5495 5489 5483 5479 5477 5476 5474 5472 5470 5472 5475 5476 5478 5479 5481 5483 5485 5487 5489 5490 5491
5659 5655 5653 5650 5646 5642 5635 5628 5620 5613 5603 5593 5584 5575 5560 5550 5538 5529 5516 5503 5494 5489 5487 5485 5482 5478 5475 5475 5473 5472 5471 5471 5472 5473 5475 5475 5475 5477 5478 5480 5481 5482 5483 5483
5648 5645 5641 5638 5633 5625 5620 5612 5604 5596 5584 5573 5564 5555 5544 5534 5524 5512 5498 5487 5480 5479 5478 5477 5475 5471 5469 5469 5469 5468 5466 5468 5471 5472 5471 5472 5472 5473 5474 5474 5475 5474 5474 5473
5635 5633 5627 5623 5617 5610 5601 5595 5588 5579 5566 5558 5548 5537 5527 5517 5510 5498 5480 5470 5469 5467 5468 5468 5467 5465 5466 5467 5467 5470 5467 5467 5469 5469 5470 5469 5469 5469 5468 5468 5467 5466 5465 5464
5624 5620 5613 5608 5604 5595 5586 5580 5569 5562 5557 5544 5533 5523 5513 5502 5492 5486 5475 5464 5456 5456 5458 5459 5459 5459 5461 5461 5463 5466 5465 5466 5465 5465 5464 5463 5463 5463 5462 5461 5459 5458 5456 5454
5610 5605 5599 5592 5585 5578 5573 5561 5553 5546 5540 5528 5520 5511 5503 5495 5491 5484 5475 5466 5456 5451 5451 5453 5454 5457 5458 5458 5460 5459 5459 5459 5460 5459 5459 5458 5457 5456 5454 5452 5450 5448 5445 5443
5595 5589 5582 5575 5568 5565 5556 5548 5540 5533 5529 5516 5510 5504 5499 5494 5489 5484 5478 5470 5463 5456 5453 5452 5454 5454 5455 5455 5457 5457 5456 5456 5456 5455 5453 5452 5450 5449 5446 5443 5440 5437 5434 5431
5582 5575 5569 5560 5554 5549 5540 5533 5529 5521 5512 5509 5504 5501 5498 5492 5488 5482 5475 5470 5465 5459 5455 5454 5454 5453 5452 5453 5453 5453 5453 5452 5451 5450 5448 5445 5443 5440 5437 5433 5429 5425 5421 5417
5566 5561 5554 5550 5543 5535 5527 5519 5515 5511 5507 5502 5498 5494 5495 5490 5484 5479 5473 5469 5465 5460 5457 5455 5453 5451 5450 5450 5449 5448 5447 5447 5445 5443 5441 5439 5436 5432 5429 5424 5420 5414 5408 5404
5554 5547 5543 5534 5525 5521 5516 5513 5508 5504 5501 5497 5494 5490 5485 5484 5479 5473 5469 5467 5463 5460 5456 5453 5451 5449 5447 5446 5445 5443 5442 5442 5440 5439 5436 5433 5430 5426 5422 5416 5411 5405 5398 5394
5539 5533 5527 5524 5515 5514 5508 5503 5499 5496 5494 5493 5492 5486 5482 5477 5472 5468 5464 5462 5459 5456 5453 5451 5448 5445 5442 5441 5440 5439 5438 5436 5435 5433 5431 5428 5424 5420 5415 5410 5404 5397 5391 5386
5525 5521 5515 5512 5506 5504 5500 5494 5490 5488 5485 5481 5482 5480 5475 5469 5465 5462 5459 5456 5453 5450 5448 5445 5443 5440 5438 5436 5435 5433 5431 5429 5428 5426 5424 5421 5418 5414 5409 5404 5398 5391 5385 5380